Regional Weather Roundup
Issued by NWS Jackson, KY

Home | Current Version | Previous Version | Graphics & Text | Print | Product List | Glossary On
Versions: 1 2 3 4 5 6 7 8 9 10 11 12 13 14 15 16 17 18 19 20 21 22 23 24 25 26 27 28 29 30 31 32 33 34 35 36 37 38 39 40 41 42 43 44 45 46 47 48 49 50
000
ASUS43 KJKL 010519
RWRJKL

EAST KENTUCKY HOURLY WEATHER ROUNDUP
NATIONAL WEATHER SERVICE JACKSON KY
100 AM EDT WED OCT 01 2014

NOTE: "FAIR" INDICATES FEW OR NO CLOUDS BELOW 12,000 FEET WITH
NO SIGNIFICANT WEATHER AND/OR OBSTRUCTIONS TO VISIBILITY.

* THESE REPORTS ARE NOT UNDER NWS QUALITY CONTROL AND MAY NOT
  REPORT WEATHER SUCH AS PRECIPITATION AND FOG.

KYZ079-080-083-085-087-088-110-112-115-119-120-010600
...EASTERN KENTUCKY...

CITY           SKY/WX    TMP DP  RH WIND       PRES   REMARKS
JACKSON        CLEAR     65  56  72 CALM      29.97R
LONDON         PTCLDY    59  56  89 CALM      29.96S
SOMERSET*      CLEAR     57  55  94 CALM      29.96S
MONTICELLO*    CLEAR     56  55  96 CALM      29.97S
WILLIAMSBURG*  CLEAR     55  55 100 CALM      29.97S
MIDDLESBORO*   CLEAR     55  55  97 CALM      29.99S
HARLAN APT*    CLEAR     55  55 100 E5        29.99S
BLACK MTN*       N/A     59  48  67 S1          N/A
PIKEVILLE APT* PTCLDY    63  57  82 CALM      29.97S
BIG SANDY*     CLEAR     63  59  89 NE3       29.97R
MOREHEAD APT*  CLOUDY    59  57  94 CALM      29.99R FOG
ASHLAND*       CLOUDY    63  54  72 N3        29.96R
$$

KYZ035-036-041-042-044-050-067-078-099-010600
...CENTRAL KENTUCKY...

CITY           SKY/WX    TMP DP  RH WIND       PRES   REMARKS
MT STERLING*   CLEAR     61  59  94 NE3       29.98S
FLEMING/MASON* PTCLDY    57  54  88 N7        29.99S
DANVILLE*      CLEAR     59  55  88 N3        29.97R
RICHMOND*      CLEAR     61  55  82 CALM      29.96R
LEXINGTON      CLEAR     63  58  83 NE6       29.96S
FRANKFORT      CLEAR     63  58  83 VRB3      29.96R
$$

KYZ091>093-OHZ055-061-077-WVZ005-015-034-035-042-010600
...SOUTHERN OHIO/WEST VIRGINIA...

CITY           SKY/WX    TMP DP  RH WIND       PRES   REMARKS
COVINGTON      PTCLDY    57  48  72 NE9       29.99R
COLUMBUS       MOCLDY    51  49  92 CALM      29.99S
DAYTON         CLEAR     48  45  89 N3        30.01S
WILMINGTON     MOCLDY    48  45  89 N6        29.99F
HUNTINGTON     CLOUDY    61  58  90 CALM      29.96R
CHARLESTON     PTCLDY    63  58  83 CALM      29.95R
PINEVILLE*     CLEAR     57  57 100 MISG      30.03S FOG
BECKLEY        MOCLDY    60  52  74 CALM      30.00R
BLUEFIELD      CLEAR     59  51  75 W6        30.02S
$$

VAZ002-007-008-TNZ017-027-036-066-071-010600
...SOUTHWEST VIRGINIA/EAST TENNESSEE...

CITY           SKY/WX    TMP DP  RH WIND       PRES   REMARKS
WISE*          CLEAR     57  50  77 SW3       30.03S
JONESVILLE*    CLEAR     54  54 100 CALM      30.01S
ABINGDON*      CLEAR     56  55  96 CALM      30.00S
BRISTOL        CLEAR     56  53  90 CALM      29.98S FOG
KNOXVILLE      CLEAR     62  58  86 CALM      29.94S
OAK RIDGE      CLEAR     61  58  90 CALM      29.96F
CROSSVILLE     MOCLDY    59  53  80 CALM      29.99S
NASHVILLE      MOCLDY    64  56  75 CALM      29.93S
$$

...KEY TO REMARKS...
VSB - VISIBILITY IN MILES
WCI - WIND CHILL INDEX
HX  - HEAT INDEX

$$


USA.gov is the U.S. government's official web portal to all federal, state and local government web resources and services.